When you browse on this site, cookies collect data to enhance your experience and personalize the content and advertising you see.
Visit our Privacy Policy to learn more. By continuing to use the site, you agree to this use of cookies and data.
  • In Lithuania
  • List of Countries
  • For 7 days
  • Water Temperature
  • Satellite Maps
  • Weather Map
  • Weather Widgets
  • user-avatar
    Login

    Hourly Weather Georgetown

    Today, 17 November, Saturday

    Time Temperature Precipitation Wind Pressure Humidity
    00:00 +27°C° 0.5 mm 4 mps 757 mmHg 91%
    01:00 +27°C° 0.5 mm 4 mps 757 mmHg 92%
    02:00 +26°C° 0.5 mm 4 mps 757 mmHg 93%
    03:00 +26°C° 1.5 mm 4 mps 757 mmHg 94%
    04:00 +26°C° 1.5 mm 4 mps 757 mmHg 95%
    05:00 +26°C° 1.5 mm 4 mps 757 mmHg 96%
    06:00 +27°C° 2 mm 4 mps 758 mmHg 95%
    07:00 +27°C° 2 mm 4 mps 758 mmHg 94%
    08:00 +28°C° 2 mm 4 mps 759 mmHg 93%
    09:00 +29°C° 1.6 mm 4 mps 759 mmHg 90%
    10:00 +29°C° 1.6 mm 4 mps 759 mmHg 88%
    11:00 +30°C° 1.6 mm 4 mps 759 mmHg 86%
    12:00 +30°C° 0.9 mm 4 mps 758 mmHg 85%
    13:00 +30°C° 0.9 mm 4 mps 758 mmHg 83%
    14:00 +30°C° 0.9 mm 4 mps 757 mmHg 82%
    15:00 +30°C° 0.1 mm 4 mps 757 mmHg 83%
    16:00 +29°C° 0.1 mm 4 mps 757 mmHg 84%
    17:00 +29°C° 0.1 mm 4 mps 756 mmHg 84%
    18:00 +28°C° 0.1 mm 4 mps 757 mmHg 87%
    19:00 +28°C° 0.1 mm 4 mps 757 mmHg 90%
    20:00 +27°C° 0.1 mm 4 mps 758 mmHg 93%
    21:00 +27°C° 0.1 mm 4 mps 758 mmHg 93%
    22:00 +27°C° 0.1 mm 4 mps 758 mmHg 93%
    23:00 +27°C° 0.1 mm 4 mps 758 mmHg 94%

    Tomorrow, 18 November, Sunday

    Time Temperature Precipitation Wind Pressure Humidity
    00:00 +26°C° 0.2 mm 4 mps 758 mmHg 94%
    01:00 +26°C° 0.2 mm 4 mps 757 mmHg 95%
    02:00 +26°C° 0.2 mm 3 mps 757 mmHg 95%
    03:00 +26°C° 0.7 mm 3 mps 757 mmHg 95%
    04:00 +26°C° 0.7 mm 3 mps 757 mmHg 95%
    05:00 +26°C° 0.7 mm 3 mps 757 mmHg 95%
    06:00 +27°C° 0.8 mm 3 mps 757 mmHg 94%
    07:00 +28°C° 0.8 mm 4 mps 758 mmHg 92%
    08:00 +29°C° 0.8 mm 4 mps 758 mmHg 90%
    09:00 +29°C° 0.9 mm 4 mps 758 mmHg 88%
    10:00 +30°C° 0.9 mm 4 mps 759 mmHg 87%
    11:00 +30°C° 0.9 mm 4 mps 759 mmHg 86%
    12:00 +30°C° 1.1 mm 4 mps 758 mmHg 87%
    13:00 +30°C° 1.1 mm 4 mps 757 mmHg 88%
    14:00 +29°C° 1.1 mm 4 mps 757 mmHg 89%
    15:00 +29°C° 0.5 mm 4 mps 757 mmHg 90%
    16:00 +28°C° 0.5 mm 4 mps 757 mmHg 92%
    17:00 +28°C° 0.5 mm 4 mps 757 mmHg 93%
    18:00 +27°C° 0 mm 4 mps 757 mmHg 94%
    19:00 +27°C° 0 mm 4 mps 758 mmHg 94%
    20:00 +27°C° 0 mm 4 mps 758 mmHg 95%
    21:00 +27°C° 0.5 mm 4 mps 758 mmHg 95%
    22:00 +26°C° 0.5 mm 4 mps 758 mmHg 95%
    23:00 +26°C° 0.5 mm 4 mps 758 mmHg 96%

    Day after tomorrow, 19 November, Monday

    Time Temperature Precipitation Wind Pressure Humidity
    00:00 +26°C° 1.1 mm 4 mps 758 mmHg 96%
    01:00 +26°C° 1.1 mm 4 mps 757 mmHg 96%
    02:00 +26°C° 1.1 mm 4 mps 757 mmHg 96%
    03:00 +26°C° 1.5 mm 4 mps 757 mmHg 96%
    04:00 +26°C° 1.5 mm 4 mps 757 mmHg 96%
    05:00 +26°C° 1.5 mm 3 mps 757 mmHg 96%
    06:00 +27°C° 1.7 mm 4 mps 757 mmHg 94%
    07:00 +28°C° 1.7 mm 4 mps 758 mmHg 93%
    08:00 +28°C° 1.7 mm 4 mps 758 mmHg 91%
    09:00 +29°C° 1.5 mm 4 mps 758 mmHg 90%
    10:00 +29°C° 1.5 mm 4 mps 758 mmHg 89%
    11:00 +30°C° 1.5 mm 4 mps 758 mmHg 88%
    12:00 +30°C° 1 mm 4 mps 758 mmHg 88%
    13:00 +30°C° 1 mm 4 mps 757 mmHg 88%
    14:00 +30°C° 1 mm 4 mps 756 mmHg 87%
    15:00 +29°C° 0.4 mm 4 mps 756 mmHg 88%
    16:00 +29°C° 0.4 mm 4 mps 756 mmHg 88%
    17:00 +28°C° 0.4 mm 4 mps 756 mmHg 88%
    18:00 +28°C° 0.2 mm 4 mps 756 mmHg 90%
    19:00 +27°C° 0.2 mm 4 mps 757 mmHg 91%
    20:00 +27°C° 0.2 mm 4 mps 757 mmHg 92%
    21:00 +27°C° 0.4 mm 4 mps 757 mmHg 92%
    22:00 +27°C° 0.4 mm 4 mps 758 mmHg 92%
    23:00 +27°C° 0.4 mm 4 mps 758 mmHg 92%

    20 November, Tuesday

    Time Temperature Precipitation Wind Pressure Humidity
    00:00 +27°C° 0.8 mm 4 mps 757 mmHg 93%
    01:00 +26°C° 0.8 mm 4 mps 757 mmHg 94%
    02:00 +26°C° 0.8 mm 4 mps 756 mmHg 95%
    03:00 +26°C° 1.9 mm 4 mps 756 mmHg 96%
    04:00 +26°C° 1.9 mm 4 mps 757 mmHg 97%
    05:00 +26°C° 1.9 mm 4 mps 757 mmHg 97%
    06:00 +27°C° 2.3 mm 4 mps 757 mmHg 96%
    07:00 +27°C° 2.3 mm 4 mps 758 mmHg 95%
    08:00 +28°C° 2.3 mm 4 mps 758 mmHg 93%
    09:00 +29°C° 1.8 mm 4 mps 758 mmHg 92%
    10:00 +29°C° 1.8 mm 4 mps 759 mmHg 91%
    11:00 +30°C° 1.8 mm 4 mps 759 mmHg 90%
    12:00 +30°C° 1.1 mm 4 mps 758 mmHg 88%
    13:00 +30°C° 1.1 mm 4 mps 757 mmHg 86%
    14:00 +30°C° 1.1 mm 4 mps 756 mmHg 84%
    15:00 +30°C° 0.3 mm 4 mps 756 mmHg 84%
    16:00 +29°C° 0.3 mm 4 mps 756 mmHg 83%
    17:00 +29°C° 0.3 mm 4 mps 756 mmHg 83%
    18:00 +28°C° 0.3 mm 4 mps 756 mmHg 85%
    19:00 +28°C° 0.3 mm 4 mps 757 mmHg 87%
    20:00 +27°C° 0.3 mm 4 mps 758 mmHg 89%
    21:00 +27°C° 1.2 mm 4 mps 758 mmHg 90%
    22:00 +27°C° 1.2 mm 4 mps 758 mmHg 92%
    23:00 +26°C° 1.2 mm 4 mps 758 mmHg 93%

    21 November, Wednesday

    Time Temperature Precipitation Wind Pressure Humidity
    00:00 +26°C° 2.3 mm 4 mps 757 mmHg 94%
    01:00 +26°C° 2.3 mm 4 mps 757 mmHg 95%
    02:00 +26°C° 2.3 mm 4 mps 757 mmHg 96%
    03:00 +26°C° 3.5 mm 4 mps 757 mmHg 96%
    04:00 +26°C° 3.5 mm 4 mps 757 mmHg 96%
    05:00 +26°C° 3.5 mm 4 mps 757 mmHg 97%
    06:00 +26°C° 2.8 mm 4 mps 758 mmHg 96%
    07:00 +26°C° 2.8 mm 4 mps 758 mmHg 95%
    08:00 +27°C° 2.8 mm 4 mps 759 mmHg 95%
    09:00 +27°C° 2.3 mm 4 mps 759 mmHg 94%
    10:00 +28°C° 2.3 mm 4 mps 759 mmHg 93%
    11:00 +29°C° 2.3 mm 4 mps 759 mmHg 92%
    12:00 +29°C° 1.7 mm 4 mps 758 mmHg 92%
    13:00 +29°C° 1.7 mm 4 mps 757 mmHg 92%
    14:00 +28°C° 1.7 mm 4 mps 756 mmHg 92%
    15:00 +28°C° 1.2 mm 4 mps 756 mmHg 92%
    16:00 +28°C° 1.2 mm 4 mps 756 mmHg 93%
    17:00 +27°C° 1.2 mm 4 mps 756 mmHg 93%
    18:00 +27°C° 0.9 mm 4 mps 757 mmHg 94%
    19:00 +26°C° 0.9 mm 4 mps 757 mmHg 95%
    20:00 +26°C° 0.9 mm 4 mps 758 mmHg 97%
    21:00 +26°C° 1.1 mm 4 mps 758 mmHg 96%
    22:00 +26°C° 1.1 mm 3 mps 757 mmHg 96%
    23:00 +26°C° 1.1 mm 3 mps 757 mmHg 96%

    22 November, Thursday

    Time Temperature Precipitation Wind Pressure Humidity
    00:00 +26°C° 1.2 mm 3 mps 757 mmHg 96%
    01:00 +26°C° 1.2 mm 3 mps 757 mmHg 96%
    02:00 +25°C° 1.2 mm 3 mps 756 mmHg 96%
    03:00 +25°C° 1.8 mm 3 mps 756 mmHg 96%
    04:00 +25°C° 1.8 mm 3 mps 756 mmHg 96%
    05:00 +25°C° 1.8 mm 3 mps 757 mmHg 96%
    06:00 +26°C° 2.8 mm 3 mps 757 mmHg 96%
    07:00 +26°C° 2.8 mm 3 mps 758 mmHg 95%
    08:00 +26°C° 2.8 mm 4 mps 758 mmHg 95%
    09:00 +27°C° 2.4 mm 4 mps 758 mmHg 94%
    10:00 +27°C° 2.4 mm 4 mps 758 mmHg 93%
    11:00 +28°C° 2.4 mm 4 mps 758 mmHg 92%
    12:00 +28°C° 1.7 mm 4 mps 757 mmHg 92%
    13:00 +28°C° 1.7 mm 4 mps 756 mmHg 92%
    14:00 +29°C° 1.7 mm 3 mps 755 mmHg 92%
    15:00 +28°C° 0.6 mm 3 mps 755 mmHg 93%
    16:00 +28°C° 0.6 mm 3 mps 755 mmHg 94%
    17:00 +28°C° 0.6 mm 3 mps 755 mmHg 95%
    18:00 +27°C° 0.1 mm 3 mps 756 mmHg 95%
    19:00 +27°C° 0.1 mm 3 mps 756 mmHg 96%
    20:00 +26°C° 0.1 mm 3 mps 757 mmHg 97%
    21:00 +26°C° 0 mm 3 mps 757 mmHg 97%
    22:00 +26°C° 0 mm 3 mps 757 mmHg 97%
    23:00 +26°C° 0 mm 3 mps 757 mmHg 97%
    Show more